EZY83RK LIPZ-EGGW

Flight info

Callsign EZY83RK
Flight time N/A
Altitude 38000
Route ROKIB DCT SUXAN DCT RONAG DCT ELMUR DCT RIPUS DCT DITON DCT HOC DCT LUL DCT RLP DCT ROTSI DCT KOTUN DCT NIDUV DCT PIREG DCT SOSUN DCT SUBIP UM733 UNDUG
Aircraft A320/M-SDE3FGHIRWY/LB1

Departure

Time 2026-04-28 19:08
Airport Venice Marco Polo Airport (LIPZ)

Arrival

Time N/A
Airport London Luton Airport (EGGW)
Time Latitude Longitude Altitude Speed Heading
2026-04-28 18:37 45.50654 12.34134 16 ft 0 kts 228°
2026-04-28 18:56 45.50653 12.34133 16 ft 0 kts 228°
2026-04-28 18:57 45.50654 12.34134 16 ft 2 kts 228°
2026-04-28 18:57 45.50664 12.34151 15 ft 2 kts 228°
2026-04-28 18:57 45.50675 12.34168 18 ft 2 kts 228°
2026-04-28 18:58 45.50686 12.34185 15 ft 2 kts 228°
2026-04-28 18:58 45.50697 12.34202 17 ft 2 kts 222°
2026-04-28 18:58 45.50710 12.34214 15 ft 2 kts 188°
2026-04-28 18:58 45.50720 12.34216 18 ft 1 kts 148°
2026-04-28 18:59 45.50728 12.34208 18 ft 1 kts 114°
2026-04-28 18:59 45.50731 12.34195 20 ft 1 kts 128°
2026-04-28 18:59 45.50732 12.34192 20 ft 0 kts 129°
2026-04-28 19:01 45.50709 12.34232 16 ft 10 kts 131°
2026-04-28 19:02 45.50658 12.34313 16 ft 10 kts 133°
2026-04-28 19:02 45.50604 12.34338 16 ft 7 kts 178°
2026-04-28 19:02 45.50554 12.34341 16 ft 9 kts 178°
2026-04-28 19:02 45.50473 12.34344 16 ft 15 kts 178°
2026-04-28 19:03 45.50380 12.34350 16 ft 13 kts 177°
2026-04-28 19:03 45.50340 12.34353 16 ft 3 kts 177°
2026-04-28 19:03 45.50316 12.34354 16 ft 6 kts 181°
2026-04-28 19:03 45.50264 12.34342 16 ft 6 kts 179°
2026-04-28 19:04 45.50224 12.34359 16 ft 5 kts 165°
2026-04-28 19:04 45.50160 12.34360 16 ft 16 kts 193°
2026-04-28 19:04 45.50048 12.34243 15 ft 22 kts 221°
2026-04-28 19:04 45.49924 12.34092 14 ft 24 kts 220°
2026-04-28 19:05 45.49804 12.33933 14 ft 20 kts 223°
2026-04-28 19:05 45.49697 12.33794 16 ft 21 kts 222°
2026-04-28 19:05 45.49603 12.33681 16 ft 13 kts 199°
2026-04-28 19:05 45.49565 12.33695 16 ft 0 kts 135°
2026-04-28 19:06 45.49558 12.33706 16 ft 7 kts 134°
2026-04-28 19:06 45.49491 12.33808 15 ft 14 kts 133°
2026-04-28 19:07 45.49506 12.33895 14 ft 0 kts 41°
2026-04-28 19:07 45.49525 12.33919 14 ft 20 kts 41°
2026-04-28 19:07 45.49844 12.34332 12 ft 98 kts 43°
2026-04-28 19:08 45.50501 12.35174 15 ft 154 kts 41°
2026-04-28 19:08 45.51330 12.36262 530 ft 159 kts 46°
2026-04-28 19:08 45.52105 12.37419 1178 ft 164 kts 48°
2026-04-28 19:08 45.52934 12.38677 1627 ft 185 kts 47°
2026-04-28 19:09 45.53858 12.40060 2144 ft 197 kts 46°
2026-04-28 19:09 45.54837 12.41463 2779 ft 203 kts 43°
2026-04-28 19:09 45.56128 12.42234 3414 ft 210 kts
2026-04-28 19:09 45.57473 12.41473 4101 ft 216 kts 321°
2026-04-28 19:10 45.58508 12.39905 4814 ft 216 kts 314°
2026-04-28 19:10 45.59362 12.38162 5456 ft 218 kts 294°
2026-04-28 19:10 45.59774 12.36040 5943 ft 230 kts 276°
2026-04-28 19:10 45.59918 12.33663 6289 ft 252 kts 274°
2026-04-28 19:11 45.60064 12.31061 6802 ft 271 kts 274°
2026-04-28 19:11 45.60218 12.28352 7635 ft 276 kts 274°
2026-04-28 19:11 45.60377 12.25610 8565 ft 278 kts 274°
2026-04-28 19:11 45.60538 12.22852 9521 ft 280 kts 274°
2026-04-28 19:12 45.60701 12.20073 10401 ft 283 kts 274°
2026-04-28 19:12 45.60873 12.17162 10736 ft 307 kts 274°
2026-04-28 19:12 45.61061 12.14008 10987 ft 330 kts 274°
2026-04-28 19:12 45.61262 12.10645 11330 ft 347 kts 274°
2026-04-28 19:13 45.61470 12.07173 12012 ft 353 kts 274°
2026-04-28 19:13 45.61678 12.03668 12789 ft 356 kts 274°
2026-04-28 19:13 45.61897 12.00139 13572 ft 359 kts 277°
2026-04-28 19:13 45.62504 11.96668 14262 ft 363 kts 290°
2026-04-28 19:14 45.63696 11.93471 14920 ft 367 kts 304°
2026-04-28 19:14 45.65420 11.90750 15572 ft 373 kts 317°
2026-04-28 19:14 45.67538 11.88572 16215 ft 377 kts 323°
2026-04-28 19:14 45.69717 11.86466 16858 ft 380 kts 323°
2026-04-28 19:15 45.71916 11.84349 17487 ft 383 kts 326°
2026-04-28 19:15 45.74283 11.82551 18078 ft 388 kts 332°
2026-04-28 19:15 45.76725 11.80866 18623 ft 392 kts 332°
2026-04-28 19:15 45.78391 11.79717 18937 ft 395 kts 332°
2026-04-28 19:16 45.81684 11.77442 19613 ft 399 kts 332°
2026-04-28 19:16 45.84192 11.75708 20120 ft 402 kts 332°
2026-04-28 19:16 45.86713 11.73962 20640 ft 404 kts 332°
2026-04-28 19:16 45.89255 11.72199 21161 ft 406 kts 332°
2026-04-28 19:17 45.91746 11.70279 21669 ft 406 kts 324°
2026-04-28 19:17 45.93985 11.67807 22146 ft 406 kts 315°
2026-04-28 19:17 45.95896 11.64820 22613 ft 407 kts 306°
2026-04-28 19:17 45.97602 11.61559 23104 ft 409 kts 305°
2026-04-28 19:18 45.99321 11.58276 23573 ft 412 kts 305°
2026-04-28 19:18 46.01052 11.54978 23947 ft 414 kts 306°
2026-04-28 19:18 46.02795 11.51661 24362 ft 416 kts 306°
2026-04-28 19:18 46.04544 11.48332 24767 ft 417 kts 305°
2026-04-28 19:19 46.06317 11.44948 25182 ft 418 kts 305°
2026-04-28 19:19 46.08047 11.41642 25571 ft 419 kts 305°
2026-04-28 19:19 46.09831 11.38234 25946 ft 421 kts 305°
2026-04-28 19:19 46.11567 11.34912 26326 ft 422 kts 305°
2026-04-28 19:20 46.13335 11.31522 26699 ft 423 kts 305°
2026-04-28 19:20 46.15101 11.28126 27066 ft 424 kts 305°
2026-04-28 19:20 46.16873 11.24715 27498 ft 426 kts 305°
2026-04-28 19:20 46.18652 11.21294 27859 ft 427 kts 305°
2026-04-28 19:21 46.20435 11.17861 28192 ft 429 kts 305°
2026-04-28 19:21 46.22222 11.14411 28531 ft 430 kts 305°
2026-04-28 19:21 46.24009 11.10957 28978 ft 428 kts 305°
2026-04-28 19:21 46.25787 11.07519 29484 ft 426 kts 304°
2026-04-28 19:22 46.27555 11.04089 29999 ft 423 kts 304°
2026-04-28 19:22 46.28713 11.01839 30289 ft 422 kts 304°
2026-04-28 19:22 46.31048 10.97297 30782 ft 419 kts 304°
2026-04-28 19:22 46.32780 10.93927 31198 ft 417 kts 304°
2026-04-28 19:23 46.34506 10.90564 31608 ft 415 kts 304°
2026-04-28 19:23 46.36223 10.87220 32018 ft 413 kts 304°
2026-04-28 19:23 46.37932 10.83882 32417 ft 412 kts 304°
2026-04-28 19:23 46.39636 10.80547 32837 ft 411 kts 304°
2026-04-28 19:24 46.41335 10.77223 33200 ft 409 kts 304°
2026-04-28 19:24 46.43027 10.73909 33576 ft 408 kts 304°
2026-04-28 19:24 46.44707 10.70614 33969 ft 406 kts 304°
2026-04-28 19:24 46.46385 10.67321 34332 ft 405 kts 304°
2026-04-28 19:25 46.48054 10.64045 34671 ft 404 kts 304°
2026-04-28 19:25 46.49721 10.60770 34982 ft 403 kts 304°
2026-04-28 19:25 46.51382 10.57499 35242 ft 403 kts 304°
2026-04-28 19:25 46.53040 10.54224 35478 ft 403 kts 304°
2026-04-28 19:26 46.54706 10.50939 35697 ft 405 kts 305°
2026-04-28 19:26 46.56591 10.47888 35913 ft 409 kts 314°
2026-04-28 19:26 46.58822 10.45282 36154 ft 414 kts 321°
2026-04-28 19:26 46.61190 10.42907 36395 ft 414 kts 321°
2026-04-28 19:27 46.63563 10.40520 36595 ft 415 kts 321°
2026-04-28 19:27 46.65935 10.38121 36805 ft 415 kts 321°
2026-04-28 19:27 46.68300 10.35715 37051 ft 415 kts 321°
2026-04-28 19:27 46.70669 10.33302 37224 ft 415 kts 321°
2026-04-28 19:28 46.73036 10.30894 37462 ft 416 kts 321°
2026-04-28 19:28 46.75347 10.28398 37638 ft 409 kts 315°
2026-04-28 19:28 46.77298 10.25490 37783 ft 406 kts 306°
2026-04-28 19:28 46.78913 10.22069 37937 ft 404 kts 297°
2026-04-28 19:29 46.80107 10.18375 38094 ft 402 kts 291°
2026-04-28 19:29 46.80817 10.15874 38130 ft 404 kts 291°
2026-04-28 19:29 46.83351 10.07001 38139 ft 410 kts 291°
2026-04-28 19:30 46.85559 9.99266 38145 ft 410 kts 291°
2026-04-28 19:30 46.87736 9.91580 38143 ft 409 kts 291°
2026-04-28 19:31 46.89895 9.83935 38146 ft 410 kts 291°
2026-04-28 19:31 46.92078 9.76178 38146 ft 410 kts 291°
2026-04-28 19:32 46.94224 9.68516 38141 ft 410 kts 291°
2026-04-28 19:32 46.96394 9.60803 38146 ft 410 kts 291°
2026-04-28 19:33 46.98551 9.53084 38138 ft 410 kts 291°
2026-04-28 19:33 47.00718 9.45301 38138 ft 409 kts 291°
2026-04-28 19:34 47.02840 9.37627 38129 ft 410 kts 290°
2026-04-28 19:34 47.04628 9.31142 38127 ft 410 kts 290°
2026-04-28 19:35 47.06754 9.23425 38119 ft 410 kts 290°
2026-04-28 19:35 47.08900 9.15635 38116 ft 410 kts 290°
2026-04-28 19:36 47.11031 9.07870 38104 ft 410 kts 290°
2026-04-28 19:36 47.13053 9.00434 38097 ft 410 kts 290°
2026-04-28 19:37 47.14810 8.93943 38099 ft 411 kts 290°
2026-04-28 19:37 47.17244 8.84805 38099 ft 411 kts 289°
2026-04-28 19:38 47.19237 8.76928 38101 ft 411 kts 289°
2026-04-28 19:38 47.21215 8.69041 38116 ft 411 kts 289°
2026-04-28 19:39 47.23208 8.61154 38121 ft 411 kts 289°
2026-04-28 19:39 47.25205 8.53286 38123 ft 410 kts 289°
2026-04-28 19:40 47.27195 8.45416 38121 ft 410 kts 289°
2026-04-28 19:40 47.29174 8.37539 38129 ft 410 kts 289°
2026-04-28 19:41 47.31143 8.29666 38126 ft 409 kts 289°
2026-04-28 19:41 47.33098 8.21802 38119 ft 409 kts 289°
2026-04-28 19:42 47.35048 8.13933 38115 ft 408 kts 289°
2026-04-28 19:42 47.36664 8.07399 38112 ft 408 kts 289°
2026-04-28 19:43 47.38931 7.98213 38109 ft 408 kts 289°
2026-04-28 19:43 47.40852 7.90386 38100 ft 408 kts 288°
2026-04-28 19:44 47.42780 7.82505 38086 ft 408 kts 288°
2026-04-28 19:44 47.44701 7.74626 38077 ft 408 kts 288°
2026-04-28 19:45 47.46599 7.66728 38065 ft 407 kts 285°
2026-04-28 19:45 47.47994 7.58625 38062 ft 407 kts 283°
2026-04-28 19:46 47.49351 7.50505 38060 ft 407 kts 283°
2026-04-28 19:46 47.50704 7.42375 38075 ft 407 kts 282°
2026-04-28 19:47 47.52053 7.34240 38068 ft 407 kts 282°
2026-04-28 19:47 47.53398 7.26093 38065 ft 408 kts 282°
2026-04-28 19:48 47.54728 7.17989 38065 ft 408 kts 282°
2026-04-28 19:48 47.56070 7.09785 38064 ft 408 kts 282°
2026-04-28 19:49 47.57400 7.01607 38054 ft 408 kts 282°
2026-04-28 19:49 47.58722 6.93421 38052 ft 409 kts 282°
2026-04-28 19:50 47.60698 6.81120 38055 ft 410 kts 282°
2026-04-28 19:51 47.62012 6.72902 38054 ft 410 kts 282°
2026-04-28 19:51 47.63322 6.64674 38047 ft 411 kts 281°
2026-04-28 19:52 47.64629 6.56413 38045 ft 412 kts 281°
2026-04-28 19:52 47.65931 6.48138 38045 ft 412 kts 281°
2026-04-28 19:53 47.67228 6.39852 38045 ft 413 kts 281°
2026-04-28 19:53 47.68508 6.31606 38044 ft 413 kts 281°
2026-04-28 19:54 47.69998 6.23314 38055 ft 414 kts 285°
2026-04-28 19:54 47.71800 6.15186 38054 ft 415 kts 286°
2026-04-28 19:55 47.73606 6.07111 38051 ft 414 kts 285°
2026-04-28 19:55 47.75349 5.98955 38052 ft 414 kts 285°
2026-04-28 19:56 47.77058 5.90774 38054 ft 414 kts 285°
2026-04-28 19:56 47.78764 5.82579 38045 ft 415 kts 285°
2026-04-28 19:57 47.80469 5.74376 38046 ft 416 kts 285°
2026-04-28 19:57 47.82180 5.66154 38046 ft 416 kts 285°
2026-04-28 19:58 47.83878 5.57930 38046 ft 416 kts 285°
2026-04-28 19:58 47.85574 5.49689 38046 ft 416 kts 285°
2026-04-28 19:59 47.87266 5.41436 38043 ft 417 kts 284°
2026-04-28 19:59 47.88951 5.33161 38048 ft 418 kts 284°
2026-04-28 20:00 47.91058 5.25086 38040 ft 423 kts 297°
2026-04-28 20:00 47.94743 5.18185 38041 ft 429 kts 308°
2026-04-28 20:01 47.98756 5.11591 38042 ft 429 kts 308°
2026-04-28 20:01 48.02760 5.04955 38039 ft 430 kts 308°
2026-04-28 20:02 48.06774 4.98290 38041 ft 432 kts 308°
2026-04-28 20:02 48.10800 4.91602 38025 ft 433 kts 308°
2026-04-28 20:03 48.14832 4.84902 38045 ft 434 kts 308°
2026-04-28 20:03 48.18868 4.78181 38043 ft 434 kts 308°
2026-04-28 20:04 48.22900 4.71434 38048 ft 434 kts 308°
2026-04-28 20:04 48.26924 4.64681 38041 ft 435 kts 308°
2026-04-28 20:05 48.30963 4.57894 38033 ft 436 kts 308°
2026-04-28 20:05 48.34971 4.51151 38045 ft 436 kts 308°
2026-04-28 20:06 48.39009 4.44331 38031 ft 437 kts 308°
2026-04-28 20:06 48.43050 4.37490 38031 ft 438 kts 308°
2026-04-28 20:07 48.47093 4.30621 38041 ft 438 kts 308°
2026-04-28 20:07 48.51137 4.23725 38028 ft 440 kts 308°
2026-04-28 20:08 48.55189 4.16801 38033 ft 441 kts 308°
2026-04-28 20:08 48.59248 4.09839 38053 ft 442 kts 308°
2026-04-28 20:09 48.63301 4.02874 38055 ft 442 kts 308°
2026-04-28 20:09 48.67357 3.95895 38054 ft 442 kts 308°
2026-04-28 20:10 48.71415 3.88902 38055 ft 442 kts 308°
2026-04-28 20:10 48.75431 3.81861 38056 ft 441 kts 307°
2026-04-28 20:11 48.79355 3.74718 38056 ft 441 kts 306°
2026-04-28 20:11 48.83273 3.67544 38056 ft 441 kts 306°
2026-04-28 20:12 48.87198 3.60383 38059 ft 441 kts 306°
2026-04-28 20:12 48.91129 3.53220 38060 ft 441 kts 306°
2026-04-28 20:13 48.95053 3.46038 38062 ft 442 kts 306°
2026-04-28 20:13 48.98978 3.38842 38057 ft 442 kts 306°
2026-04-28 20:14 49.02905 3.31626 38056 ft 442 kts 306°
2026-04-28 20:14 49.06826 3.24392 38057 ft 443 kts 306°
2026-04-28 20:15 49.10755 3.17135 38059 ft 444 kts 306°
2026-04-28 20:15 49.14684 3.09850 38055 ft 444 kts 306°
2026-04-28 20:16 49.18612 3.02545 38049 ft 446 kts 306°
2026-04-28 20:16 49.22552 2.95202 38056 ft 447 kts 306°
2026-04-28 20:17 49.26491 2.87826 38054 ft 448 kts 306°
2026-04-28 20:17 49.29773 2.81665 38042 ft 449 kts 307°
2026-04-28 20:18 49.33725 2.74222 38056 ft 451 kts 307°
2026-04-28 20:18 49.38866 2.66224 38060 ft 454 kts 313°
2026-04-28 20:19 49.42658 2.60538 38056 ft 455 kts 313°
2026-04-28 20:19 49.47186 2.53708 38065 ft 457 kts 313°
2026-04-28 20:20 49.51728 2.46843 38071 ft 458 kts 313°
2026-04-28 20:20 49.56277 2.39954 38076 ft 460 kts 313°
2026-04-28 20:21 49.60828 2.33022 38093 ft 461 kts 313°
2026-04-28 20:21 49.65385 2.26063 38092 ft 461 kts 313°
2026-04-28 20:22 49.69948 2.19082 38085 ft 462 kts 313°
2026-04-28 20:22 49.74514 2.12082 38089 ft 463 kts 314°
2026-04-28 20:23 49.79085 2.05064 38096 ft 463 kts 313°
2026-04-28 20:23 49.83650 1.98026 38118 ft 463 kts 314°
2026-04-28 20:24 49.87870 1.90530 38124 ft 461 kts 301°
2026-04-28 20:24 49.90638 1.81632 38129 ft 458 kts 290°
2026-04-28 20:25 49.93056 1.72469 38113 ft 459 kts 290°
2026-04-28 20:25 49.95467 1.63266 38121 ft 460 kts 291°
2026-04-28 20:26 49.98107 1.54277 38118 ft 463 kts 301°
2026-04-28 20:26 50.02262 1.46637 37947 ft 465 kts 318°
2026-04-28 20:26 50.04692 1.43316 37261 ft 466 kts 318°
2026-04-28 20:27 50.07134 1.39997 36678 ft 467 kts 318°
2026-04-28 20:27 50.09583 1.36674 36138 ft 468 kts 318°
2026-04-28 20:27 50.12077 1.33282 35590 ft 472 kts 319°
2026-04-28 20:27 50.14523 1.29943 35078 ft 477 kts 318°
2026-04-28 20:28 50.17022 1.26527 34560 ft 478 kts 318°
2026-04-28 20:28 50.19531 1.23090 34023 ft 481 kts 319°
2026-04-28 20:28 50.22034 1.19657 33416 ft 479 kts 320°
2026-04-28 20:28 50.24544 1.16207 32838 ft 481 kts 320°
2026-04-28 20:29 50.27054 1.12753 32252 ft 479 kts 320°
2026-04-28 20:29 50.29541 1.09321 31695 ft 477 kts 320°
2026-04-28 20:29 50.32037 1.05874 31140 ft 480 kts 321°
2026-04-28 20:29 50.34539 1.02414 30610 ft 480 kts 321°
2026-04-28 20:30 50.37047 0.98948 30038 ft 481 kts 321°
2026-04-28 20:30 50.39561 0.95470 29408 ft 483 kts 321°
2026-04-28 20:30 50.42082 0.91980 28816 ft 485 kts 322°
2026-04-28 20:30 50.44628 0.88448 28209 ft 490 kts 322°
2026-04-28 20:31 50.47206 0.84918 27619 ft 493 kts 322°
2026-04-28 20:31 50.49817 0.81429 27052 ft 494 kts 323°
2026-04-28 20:31 50.52457 0.77953 26481 ft 496 kts 323°
2026-04-28 20:31 50.55112 0.74480 25937 ft 497 kts 323°
2026-04-28 20:32 50.57768 0.70996 25391 ft 497 kts 322°
2026-04-28 20:32 50.60407 0.67502 24867 ft 494 kts 322°
2026-04-28 20:32 50.63017 0.64018 24343 ft 491 kts 321°
2026-04-28 20:32 50.65610 0.60541 23796 ft 487 kts 323°
2026-04-28 20:33 50.68177 0.57089 23179 ft 482 kts 322°
2026-04-28 20:33 50.70709 0.53673 22594 ft 477 kts 322°
2026-04-28 20:33 50.73220 0.50284 22005 ft 473 kts 322°
2026-04-28 20:33 50.75716 0.46920 21427 ft 469 kts 322°
2026-04-28 20:34 50.78189 0.43582 20885 ft 467 kts 323°
2026-04-28 20:34 50.80648 0.40260 20335 ft 464 kts 323°
2026-04-28 20:34 50.83091 0.36953 20214 ft 461 kts 322°
2026-04-28 20:34 50.85537 0.33645 20241 ft 462 kts 323°
2026-04-28 20:35 50.87965 0.30362 19812 ft 459 kts 323°
2026-04-28 20:35 50.90384 0.27084 19337 ft 456 kts 323°
2026-04-28 20:35 50.92783 0.23824 18871 ft 453 kts 322°
2026-04-28 20:35 50.95166 0.20579 18368 ft 449 kts 322°